Location: New Frontier Mobile Home Park
(32.8448°N, 116.9675°W)
Time: 22:52:22
(UTC+00:00)

Cosmos 2344 - Pass Details

Date: 14 July 2020
Orbit: 1249 x 2993 km, 63.3° (Epoch: 05 August)

Event Time Altitude Azimuth Distance (km) Brightness Sun altitude
Rises 05:25:18 0° 223° (SW) 4,429 6.3 -25.0°
Reaches altitude 10° 05:28:20 10° 228° (SW) 3,343 5.7 -25.4°
Maximum altitude 05:35:49 54° 305° (NW) 1,481 4.1 -26.4°
Drops below altitude 10° 05:43:18 10° 22° (NNE) 3,342 6.2 -27.3°
Sets 05:46:21 0° 27° (NNE) 4,429 6.8 -27.6°
